Showing default

ARVAKER-2, 64567

Orbit data source: Space-Track

ARVAKER-2, 64567 is a payload satellite owned by NSC (NO) in SSO that was launched on Mon, 23 Jun 2025 UTC via an FALCON 9 launch vehicle from the Air Force Western Test Range (AFWTR). Payload-class satellites include a variety of spacecraft equipped with specific instruments for various scientific and technological missions. These include communications satellites like Starlink; space stations such as the ISS; scientific satellites like the Hubble; Earth observation satellites from companies like Planet Labs, Umbra, and HawkEye 360; GPS; miniature CubeSats for education and research; and military/defense satellites.

Loading next visibility...
Identifier
64567, 2025-135AR
Orbit
SSO
Country
Flag of NONO / NOR
Related business
Manufacturer
NanoAvionics
Mission
Operational Commercial Imaging
Bus & Motor
MP42, Unknown motor
Mass
~100 kg wet, ~100 kg dry
Launch date (UTC)
2025-06-23 (4 months ago)
Launch vehicle
FALCON 9
Launch site
Air Force Western Test Range (AFWTR)
Object type
Payload
Rocket body
Debris
Shape & HBR
Box + 2 Pan, 0.5 m
Radar Cross Section
0.146 m², Medium (>0.1 m² and < 1m²)

Expand to show TLE details & history
Last TLE update: 8 hours ago

TLE from 8 hours ago
0 ARVAKER-2
1 64567U 25135AR  25293.94757106  .00005669  00000-0  56624-3 0  9996
2 64567  97.7585  46.3192 0002248  60.9330 299.2114 14.91882166 18185
Epoch: 2025-10-20T22:44Z
TLE epoch observation values (Epoch: 2025-10-20T22:44:30.139Z)
Latitude
-0.00001°
Longitude
35.55105°
Altitude
594.344 km
Speed
7.563 km/s
True Right ascension
03h 05m 16s
True Declination
0° 00' 00"
Sunlit
Object was in full shadow at epoch
Visualization orbit readout
Latitude
Unknown
Longitude
Unknown
Altitude
Unknown
Speed
Unknown
Apparent Right ascension
Unknown
Apparent Declination
Unknown
Sunlit
N/A
Visualization observer readout
Local Sidereal Time
01:26:42
Azimuth
Unknown
Elevation
Unknown
Doppler factor
Unknown
Orbital elements
Apogee altitude
590.652 km
Perigee altitude
587.52 km
Semi-major axis
6,967.223 km
Eccentricity
0.00022
Inclination
97.7585°
RAAN
46.3192°
Arg. of periapsis
60.933°
True anomaly
299.18891°
Mean anomaly
299.2114°
Eccentric anomaly
299.20016°
Mean motion
3.7321 °/min
Orbital period
96.46 mins
BSTAR
0.00056624
Loading maneuver chart data...
Computing Atmospheric mass density...
Loading historical data...
Loading historical data...
Loading historical data...
Loading historical data...
Loading historical data...
Loading historical data...
Loading historical data...

Documentation

Showing up to 5 results
|